Regional Weather Roundup
Issued by NWS

Home | Current Version | Previous Version | Text Only | Print | Product List | Glossary Off
Versions: 1 2 3 4 5 6 7 8 9 10 11 12 13 14 15 16 17 18 19 20 21 22 23 24 25 26 27 28 29 30 31 32 33 34 35 36 37 38 39 40 41 42 43 44 45 46 47 48 49 50

000
ASUS43 KLOT 190621
RWRIL

ILLINOIS REGIONAL WEATHER ROUNDUP
NATIONAL WEATHER SERVICE CHICAGO/ROMEOVILLE IL
100 AM CDT SUN APR 19 2015

NOTE: "FAIR" INDICATES FEW OR NO CLOUDS BELOW 12,000 FEET WITH NO
SIGNIFICANT WEATHER AND/OR OBSTRUCTIONS TO VISIBILITY.

* THESE STATIONS ARE NOT UNDER NWS QUALITY CONTROL. THEY ALSO MAY NOT
  REPORT WEATHER SUCH AS PRECIPITATION OR FOG.

ILZ001-002-007-009-015-016-024-190700-
NORTHWEST ILLINOIS

CITY           SKY/WX    TMP DP  RH WIND       PRES   REMARKS
MOLINE         FAIR      56  37  49 E15       29.86F
6HR MIN TEMP:  56; 6HR MAX TEMP:  73;

STERLING*      FAIR      54  36  50 E12       29.90F
SAVANNA*       FAIR      55  33  43 E14       29.90F
$$

ILZ003-004-008-010-011-017-018-190700-
NORTH CENTRAL ILLINOIS

CITY           SKY/WX    TMP DP  RH WIND       PRES   REMARKS
ROCKFORD       MOCLDY    54  34  46 E14       29.95S
6HR MIN TEMP:  53; 6HR MAX TEMP:  65;

FREEPORT*      FAIR      48  33  57 E9        29.94F
ROCHELLE*      FAIR      54  39  58 E18       29.92F
DE KALB*       FAIR      52  38  58 E13       29.95F
PERU*          FAIR      52  37  55 E10       29.91S
$$

ILZ005-006-012>014-019>023-190700-
NORTHEAST ILLINOIS

CITY           SKY/WX    TMP DP  RH WIND       PRES   REMARKS
CHICAGO-OHARE  MOCLDY    53  37  54 E7        29.95F
6HR MIN TEMP:  47; 6HR MAX TEMP:  53;

CHICAGO-MIDWAY MOCLDY    55  36  48 E9        29.96F
6HR MIN TEMP:  50; 6HR MAX TEMP:  56;

AURORA         FAIR      54  38  54 E13       29.94F
6HR MIN TEMP:  53; 6HR MAX TEMP:  61;

LANSING*       FAIR      50  35  55 CALM      29.96S
JOLIET*        FAIR      56  40  54 E8G17     29.94S
WAUKEGAN       CLOUDY    47  33  58 E7        29.99S
6HR MIN TEMP:  44; 6HR MAX TEMP:  49;

DUPAGE AIRPORT FAIR      54  34  46 E9        29.94F
6HR MIN TEMP:  51; 6HR MAX TEMP:  57;

KANKAKEE*      FAIR      56  40  53 E10       29.94F
WHEELING       FAIR      51  35  54 E3        29.98F
6HR MIN TEMP:  46; 6HR MAX TEMP:  51;

MORRIS*        FAIR      56  41  57 E10       29.90F
ROMEOVILLE*    FAIR      54  36  52 E10       29.94F
NORTHERLY ISL    N/A     49  37  63 NE5         N/A
$$

LMZ740>746-190700-
SOUTHERN LAKE MICHIGAN

STATION/POSITION SKY/WX   TEMP    WIND        PRES    VSBY  WAVE
                          AIR SEA DIR/SP/G                  HT/PER
                          (F)     (DEG/KT/KT) (MB)    (MI)  (FT/S)
HARRISON CRIB              48      90/  5/  7   N/A
BURNHAM HARBOR             49      50/  4/  6   N/A
CALUMET HARBOR             47      40/  5/  6   N/A
BURNS HARBOR               61     110/ 15/ 21 1015.6F
MICHIGAN CITY                      80/ 15/ 19   N/A
MICHIGAN CITY 6N           55 46  130/ 14/ 19   N/A           3/ 6
$$

ILZ025>027-034>036-040-047-049-050-058-095>099-190700-
WEST-CENTRAL ILLINOIS

CITY           SKY/WX    TMP DP  RH WIND       PRES   REMARKS
QUINCY         FAIR      61  56  83 N3        29.83F
GALESBURG*     FAIR      60  47  64 E8        29.86S
MACOMB*        FAIR      64  51  62 E6        29.86F
JACKSONVILLE*  FAIR      60  51  70 E6        29.83F
PITTSFIELD*    FAIR      66  52  60 E3        29.83F
$$

ILZ028>032-037-038-041>044-048-051>054-059>061-190700-
CENTRAL ILLINOIS

CITY           SKY/WX    TMP DP  RH WIND       PRES   REMARKS
PONTIAC        FAIR      53  43  68 E15       29.91F
BLOOMINGTON    FAIR      55  45  69 E14       29.90S
DECATUR        FAIR      58  49  72 E8        29.86F
PEORIA         FAIR      60  46  59 E12       29.87F
6HR MIN TEMP:  60; 6HR MAX TEMP:  77;

LACON*         FAIR      53  37  55 E9        29.88F
LINCOLN*       FAIR      62  49  63 E7        29.84F
SPRINGFIELD    FAIR      63  48  58 E5        29.85F
6HR MIN TEMP:  63; 6HR MAX TEMP:  75;

TAYLORVILLE    FAIR      63  46  55 E7        29.85S
$$

ILZ033-039-045-046-055>057-062-063-190700-
EAST-CENTRAL ILLINOIS

CITY           SKY/WX    TMP DP  RH WIND       PRES   REMARKS
CHAMPAIGN      FAIR      60  50  69 NE13      29.88F
DANVILLE*      FAIR      58  51  77 E9        29.88F
RANTOUL*       FAIR      56  48  73 NE8       29.90F
MATTOON        FAIR      66  46  48 E10       29.85F
PARIS*         FAIR      63  51  65 E8        29.88F
$$

ILZ079-100>102-190700-
SOUTHWEST ILLINOIS

CITY           SKY/WX    TMP DP  RH WIND       PRES   REMARKS
ALTON          FAIR      64  52  66 E5        29.82F
BELLEVILLE     FAIR      65  57  75 E2        29.79F
CAHOKIA*       FAIR      63  57  81 CALM      29.80F
SPARTA*        FAIR      63  55  75 NE3       29.81F
$$

ILZ064>066-069>071-074>076-080>082-084>086-088>090-092>094-190700-
SOUTH-CENTRAL ILLINOIS

CITY           SKY/WX    TMP DP  RH WIND       PRES   REMARKS
CARBONDALE     FAIR      66  56  70 E6        29.79F
6HR MIN TEMP:  65; 6HR MAX TEMP:  75;

CAIRO*         DRIZZLE   66  62  87 E5        29.78F
EFFINGHAM*     FAIR      66  44  44 E6        29.86F
MARION         FAIR      68  57  68 E5        29.79F
MT. VERNON     FAIR      64  48  55 E7        29.82F
CENTRALIA*     FAIR      64  49  58 E6        29.82F
SALEM*         FAIR      69  48  47 E3        29.83F
METROPOLIS*    CLOUDY    68  60  74 CALM      29.79S
$$

ILZ067-068-072-073-078-083-087-091-190700-
SOUTHEAST ILLINOIS

CITY           SKY/WX    TMP DP  RH WIND       PRES   REMARKS
LAWRENCEVILLE  FAIR      65  48  54 NE8       29.84F
FLORA*         FAIR      63  48  56 E5        29.84F
FAIRFIELD*     FAIR      66  50  55 E8        29.81F
HARRISBURG*    FAIR      66  54  65 E8        29.81F
ROBINSON*      FAIR      61  49  66 E8        29.86F
CARMI*         MOCLDY    63  51  63 E7        29.82F
$$

ABBREVIATIONS USED IN REMARKS
   TC - TEMPERATURE IN CELSIUS
  WCI - WIND CHILL INDEX
   HX - HEAT INDEX
  VSB - VISIBILITY
$$




USA.gov is the U.S. government's official web portal to all federal, state and local government web resources and services.